Regional Weather Roundup
Issued by NWS

Home | Current Version | Previous Version | Text Only | Print | Product List | Glossary Off
Versions: 1 2 3 4 5 6 7 8 9 10 11 12 13 14 15 16 17 18 19 20 21 22 23 24 25 26 27 28 29 30 31 32 33 34 35 36 37 38 39 40 41 42 43 44 45 46 47 48 49 50

000
ASUS43 KLMK 290802
RWRKY
KENTUCKY REGIONAL WEATHER ROUNDUP
NATIONAL WEATHER SERVICE LOUISVILLE KY
400 AM EDT WED MAR 29 2017

NOTE "FAIR" INDICATES FEW OR NO CLOUDS BELOW 12,000 FEET
WITH NO SIGNIFICANT WEATHER AND/OR OBSTRUCTIONS TO VISIBILITY.

KYZ001>023-026-027-061>063-070>075-290900-
WESTERN AND SOUTH CENTRAL KENTUCKY

CITY           SKY/WX    TMP DP  RH WIND       PRES   REMARKS
PADUCAH        FOG       50  48  93 CALM      30.03S VSB 1
HENDERSON      CLOUDY    54  46  76 E8        30.06R
OWENSBORO        N/A    N/A N/A N/A MISG        N/A
HOPKINSVILLE   CLEAR     50  50 100 NE5       30.03S FOG
BOWLING GREEN  CLEAR     53  50  89 NE6       30.06F
GLASGOW        NOT AVBL
$$

KYZ024-025-028>034-038-045-046-053-290900-
NORTH CENTRAL KENTUCKY

CITY           SKY/WX    TMP DP  RH WIND       PRES   REMARKS
LOUISVILLE/SDF MOCLDY    53  47  79 NE5       30.10F
LOUISVILLE/LOU CLEAR     51  47  86 N3        30.10F
FORT KNOX      CLEAR     51  49  94 NE7       30.07F
$$

KYZ035>037-039>044-047>052-055>060-089>105-290900-
NORTHEAST KENTUCKY

CITY           SKY/WX    TMP DP  RH WIND       PRES   REMARKS
LEXINGTON      CLOUDY    53  47  79 E14       30.10S
COVINGTON      CLOUDY    50  45  83 NE13      30.12S
FRANKFORT      CLOUDY    53  47  79 NE6       30.08F
$$

KYZ054-064>069-076>088-106>120-290900-
SOUTHEAST KENTUCKY

CITY           SKY/WX    TMP DP  RH WIND       PRES   REMARKS
JACKSON        CLOUDY    54  51  90 NE3       30.08S
LONDON         CLOUDY    56  51  84 NE7       30.07R
SOMERSET       NOT AVBL
MIDDLESBORO    CLOUDY    49  49 100 CALM      30.07R
MONTICELLO     CLOUDY    54  53  97 N13       30.09R
$$





USA.gov is the U.S. government's official web portal to all federal, state and local government web resources and services.